Location: Del Amo
(33.8464°N, 118.2104°W)
Time: 19:03:30
(UTC+00:00)

Vanguard 2 Rocket - Pass Details

Date: 16 September 2024
Orbit: 553 x 3299 km, 32.9° (Epoch: 05 October)

Event Time Altitude Azimuth Distance (km) Brightness Sun altitude
Rises 09:56:31 0° 258° (WSW) 4,406 - -42.8°
Reaches altitude 10° 09:58:56 10° 257° (WSW) 3,708 - -42.4°
Exits shadow 10:09:05 84° 189° (S) 2,244 8.5 -40.8°
Maximum altitude 10:09:18 84° 171° (S) 2,257 8.5 -40.8°
Drops below altitude 10° 10:27:13 10° 86° (E) 6,015 11.6 -37.8°
Sets 10:32:22 0° 86° (E) 7,203 12.2 -37.0°
